Starlink 36183

operational
NORAD ID: 67173 Int'l Des: 2025-303 Owner: SPXS Country: US Constellation: starlink
LEOCIRCULAR

Über Starlink 36183

Beschreibung wird geladen...

Live-Position

3D-Globus wird geladen...

Nächste Überflüge

Höhenverlauf

Altitude vs Time

uPlot chart will show altitude changes over time

Zweizeiliger Elementsatz

1 67173C 25303L 25352.76576389 .00699540 00000+0 10297-2 0 3521
2 67173 43.0046 61.7951 0007396 286.7940 251.8396 16.03271357 13
Epoch: 18. Dez. 2025 • Age: 44 hours

Aktueller Status

Höhe 262.9 km
Geschwindigkeit 7.75 km/s
Subsatellitenpunkt -1.88°S, 148.57°W
Startdatum 17. Dez. 2025
Alter 2 days
Typ internet

Technische Details

Klassifizierung Payload
Masse 575.00 kg
Trockenmasse 530.00 kg
Gesamtmasse 575.00 kg
Länge 0.30 m
Durchmesser 4.10 m
Spannweite 29.00 m
Form Box + pan
Hersteller SPXS
Bus-Typ Starlink V2MO
Phasenstatus In Orbit
Besitzer/Staat SPXS/US

Große Konstellationen

Loading constellations...